GW1753 Weather Reports


time (UTC)temp
C
wind
direction
speed
KPH
gust
KPH
rain 1hr
cm
rain 24hr
cm
rain mn
cm
humidity
%
barometer
mb
20260503013909 18 55 0.0 0.0 0.00 0.00 0.00 35 1018.1
20260503013406 18 38 0.0 0.0 0.00 0.00 0.00 35 1018.2
20260503012903 19 7 0.0 0.0 0.00 0.00 0.00 34 1018.2
20260503012401 18 306 0.0 0.0 0.00 0.00 0.00 34 1018.2
20260503011857 18 317 0.0 3.2 0.00 0.00 0.00 33 1018.2
20260503011354 19 316 1.6 3.2 0.00 0.00 0.00 32 1018.5
20260503010851 18 287 0.0 0.0 0.00 0.00 0.00 34 1018.5
20260503010348 18 283 0.0 1.6 0.00 0.00 0.00 33 1018.5
20260503005844 18 274 0.0 4.8 0.00 0.00 0.00 33 1018.5
20260503005342 18 288 0.0 0.0 0.00 0.00 0.00 33 1018.5
20260503004838 18 292 0.0 3.2 0.00 0.00 0.00 33 1018.6
20260503004336 18 280 0.0 3.2 0.00 0.00 0.00 34 1018.6
20260503003833 18 295 0.0 1.6 0.00 0.00 0.00 34 1018.7
20260503003330 19 315 0.0 0.0 0.00 0.00 0.00 34 1018.8
20260503002827 19 319 0.0 0.0 0.00 0.00 0.00 34 1018.8
20260503002324 19 183 0.0 0.0 0.00 0.00 0.00 34 1018.7
20260503001820 19 251 0.0 0.0 0.00 0.00 0.00 34 1018.8
20260503001316 19 111 0.0 0.0 0.00 0.00 0.00 33 1018.9
20260503000814 19 207 0.0 1.6 0.00 0.00 0.00 34 1018.7
20260503000312 20 126 0.0 1.6 0.00 0.00 0.00 33 1018.8
20260502235808 20 64 0.0 3.2 0.00 0.00 0.00 33 1018.9
20260502235306 20 60 0.0 4.8 0.00 0.00 0.00 32 1018.8
20260502234802 21 63 6.4 9.7 0.00 0.00 0.00 31 1018.8
20260502234259 20 55 0.0 6.4 0.00 0.00 0.00 32 1018.9
20260502233755 21 38 0.0 3.2 0.00 0.00 0.00 32 1019.0
20260502233252 21 46 1.6 3.2 0.00 0.00 0.00 31 1019.2
20260502232748 21 300 0.0 4.8 0.00 0.00 0.00 31 1019.1
20260502232245 21 42 1.6 4.8 0.00 0.00 0.00 31 1019.1
20260502231742 21 307 0.0 3.2 0.00 0.00 0.00 31 1019.4
20260502231240 21 248 0.0 3.2 0.00 0.00 0.00 31 1019.4
20260502230738 21 326 1.6 6.4 0.00 0.00 0.00 31 1019.6
20260502230236 21 334 3.2 6.4 0.00 0.00 0.00 31 1019.4
20260502225732 21 327 0.0 3.2 0.00 0.00 0.00 31 1019.6
20260502225229 21 333 6.4 11.3 0.00 0.00 0.00 31 1019.7
20260502224725 21 338 6.4 11.3 0.00 0.00 0.00 31 1019.8
20260502224222 20 338 0.0 6.4 0.00 0.00 0.00 33 1019.8
20260502223720 20 336 4.8 6.4 0.00 0.00 0.00 32 1019.9
20260502223218 20 347 0.0 0.0 0.00 0.00 0.00 32 1019.8
20260502222715 20 312 0.0 0.0 0.00 0.00 0.00 32 1020.0
20260502222212 20 214 1.6 6.4 0.00 0.00 0.00 33 1020.0
20260502221708 20 210 6.4 14.5 0.00 0.00 0.00 34 1020.0
20260502221204 20 232 8.0 11.3 0.00 0.00 0.00 34 1020.2
20260502220700 20 289 0.0 1.6 0.00 0.00 0.00 32 1020.3
20260502220157 20 265 4.8 9.7 0.00 0.00 0.00 34 1020.3
20260502215654 20 318 6.4 11.3 0.00 0.00 0.00 33 1020.2
20260502215151 20 240 3.2 6.4 0.00 0.00 0.00 34 1020.3
20260502214648 20 310 8.0 16.1 0.00 0.00 0.00 33 1020.6
20260502214145 20 357 0.0 6.4 0.00 0.00 0.00 32 1020.6
20260502213642 20 56 0.0 0.0 0.00 0.00 0.00 33 1020.6
20260502213140 20 218 0.0 4.8 0.00 0.00 0.00 32 1020.9
20260502212638 20 341 3.2 9.7 0.00 0.00 0.00 33 1021.0
20260502212136 20 296 4.8 14.5 0.00 0.00 0.00 34 1021.1
20260502211631 18 5 0.0 4.8 0.00 0.00 0.00 35 1021.0
20260502211124 18 5 0.0 4.8 0.00 0.00 0.00 35 1021.0
20260502210621 20 164 0.0 1.6 0.00 0.00 0.00 34 1020.9
20260502210117 20 251 0.0 0.0 0.00 0.00 0.00 34 1021.0
20260502193038 18 350 0.0 6.4 0.00 0.00 0.00 36 1021.7
20260502192534 18 350 0.0 6.4 0.00 0.00 0.00 36 1021.7
20260502192031 18 350 3.2 9.7 0.00 0.00 0.00 36 1022.0
20260502191528 18 354 0.0 3.2 0.00 0.00 0.00 36 1022.0
20260502191026 18 65 4.8 9.7 0.00 0.00 0.00 35 1021.7
20260502190523 18 77 8.0 11.3 0.00 0.00 0.00 35 1022.0
20260502190020 18 352 1.6 4.8 0.00 0.00 0.00 36 1022.0
20260502185515 18 296 0.0 6.4 0.00 0.00 0.00 37 1022.0
20260502185012 18 74 12.9 16.1 0.00 0.00 0.00 36 1022.1
20260502184508 20 34 3.2 6.4 0.00 0.00 0.00 33 1022.1
20260502184004 19 54 4.8 9.7 0.00 0.00 0.00 34 1022.3
20260502183500 18 338 8.0 11.3 0.00 0.00 0.00 35 1022.3
20260502182955 18 327 0.0 9.7 0.00 0.00 0.00 36 1022.5
20260502182451 18 46 0.0 6.4 0.00 0.00 0.00 35 1022.3
20260502181948 20 68 0.0 11.3 0.00 0.00 0.00 35 1022.5
20260502181446 18 39 6.4 14.5 0.00 0.00 0.00 37 1022.3
20260502180945 18 76 4.8 9.7 0.00 0.00 0.00 36 1022.3
20260502180442 18 51 8.0 12.9 0.00 0.00 0.00 36 1022.4
20260502170406 18 332 6.4 9.7 0.00 0.00 0.00 38 1022.7
20260502163849 17 81 6.4 24.1 0.00 0.00 0.00 40 1022.8
20260502163345 17 51 3.2 11.3 0.00 0.00 0.00 38 1022.6
20260502162843 17 16 0.0 9.7 0.00 0.00 0.00 39 1022.8
20260502162339 17 35 1.6 11.3 0.00 0.00 0.00 40 1022.9
20260502161837 16 53 6.4 11.3 0.00 0.00 0.00 40 1022.9
20260502161332 16 54 4.8 14.5 0.00 0.00 0.00 41 1022.7
20260502160831 16 70 9.7 12.9 0.00 0.00 0.00 40 1023.0
20260502160329 16 69 9.7 17.7 0.00 0.00 0.00 41 1022.9
20260502152258 15 72 9.7 14.5 0.00 0.00 0.00 42 1022.7
20260502151756 15 85 3.2 12.9 0.00 0.00 0.00 42 1022.8
20260502151253 15 64 9.7 12.9 0.00 0.00 0.00 42 1022.8
20260502150751 14 76 9.7 20.9 0.00 0.00 0.00 43 1022.8
20260502150247 14 71 9.7 20.9 0.00 0.00 0.00 43 1022.6
20260502130635 10 345 0.0 4.8 0.00 0.00 0.00 52 1021.8
20260502130133 10 20 3.2 4.8 0.00 0.00 0.00 52 1021.7
20260502123619 8 25 0.0 3.2 0.00 0.00 0.00 55 1021.4
20260502123115 8 353 0.0 4.8 0.00 0.00 0.00 55 1021.2
20260502122612 8 60 3.2 9.7 0.00 0.00 0.00 55 1021.0
20260502122109 8 17 1.6 4.8 0.00 0.00 0.00 54 1021.2
20260502121607 7 51 1.6 3.2 0.00 0.00 0.00 56 1021.2
20260502121104 7 31 1.6 3.2 0.00 0.00 0.00 56 1021.2
20260502120600 7 50 0.0 0.0 0.00 0.00 0.00 56 1021.3
20260502115556 7 334 0.0 0.0 0.00 0.00 0.00 55 1021.1
20260502115050 7 318 0.0 0.0 0.00 0.00 0.00 55 1021.0
20260502114547 7 36 0.0 3.2 0.00 0.00 0.00 56 1021.0
20260502114044 6 309 0.0 0.0 0.00 0.00 0.00 56 1020.8
20260502113542 6 306 0.0 0.0 0.00 0.00 0.00 56 1020.6
20260502113041 6 343 0.0 0.0 0.00 0.00 0.00 55 1020.6
20260502112538 7 331 0.0 0.0 0.00 0.00 0.00 52 1020.5
20260502112035 8 324 0.0 0.0 0.00 0.00 0.00 51 1020.5
20260502111532 9 329 0.0 0.0 0.00 0.00 0.00 48 1020.4
20260502111030 9 28 0.0 1.6 0.00 0.00 0.00 47 1020.1
20260502110527 10 58 1.6 3.2 0.00 0.00 0.00 47 1019.9
20260502110025 10 39 1.6 3.2 0.00 0.00 0.00 46 1020.0
20260502105522 10 356 0.0 4.8 0.00 0.00 0.00 45 1019.9
20260502105019 10 62 0.0 6.4 0.00 0.00 0.00 45 1019.9
20260502104516 9 306 0.0 0.0 0.00 0.00 0.00 46 1019.8
20260502104014 8 303 0.0 0.0 0.00 0.00 0.00 46 1019.9
20260502103511 8 309 0.0 0.0 0.00 0.00 0.00 47 1019.9
20260502103009 7 322 0.0 1.6 0.00 0.00 0.00 48 1019.8
20260502102505 8 317 0.0 0.0 0.00 0.00 0.00 48 1019.8
20260502102002 8 295 0.0 0.0 0.00 0.00 0.00 48 1019.6
20260502101500 7 258 0.0 0.0 0.00 0.00 0.00 49 1019.6
20260502100958 7 286 0.0 0.0 0.00 0.00 0.00 48 1019.6
20260502100457 8 294 0.0 1.6 0.00 0.00 0.00 47 1019.4
20260502091431 6 292 0.0 0.0 0.00 0.00 0.00 52 1018.9
20260502090928 6 274 0.0 0.0 0.00 0.00 0.00 52 1018.8
20260502090425 7 281 0.0 0.0 0.00 0.00 0.00 50 1018.6
20260502071320 7 203 6.4 6.4 0.00 0.00 0.00 48 1018.5
20260502070818 8 166 0.0 0.0 0.00 0.00 0.00 44 1018.6
20260502070315 8 190 0.0 0.0 0.00 0.00 0.00 42 1018.5
20260502065814 8 254 0.0 0.0 0.00 0.00 0.00 43 1018.4
20260502065312 8 289 0.0 0.0 0.00 0.00 0.00 41 1018.2
20260502064810 8 284 1.6 3.2 0.00 0.00 0.00 42 1018.4
20260502064307 8 287 1.6 4.8 0.00 0.00 0.00 41 1018.4
20260502063804 8 296 1.6 3.2 0.00 0.00 0.00 41 1018.5
20260502063302 7 295 0.0 0.0 0.00 0.00 0.00 44 1018.1
20260502062759 7 268 0.0 3.2 0.00 0.00 0.00 45 1018.4
20260502062257 7 259 0.0 3.2 0.00 0.00 0.00 45 1018.4
20260502061755 7 269 0.0 0.0 0.00 0.00 0.00 43 1018.1
20260502061253 8 293 0.0 3.2 0.00 0.00 0.00 41 1018.1
20260502060753 8 285 0.0 0.0 0.00 0.00 0.00 42 1018.4
20260502060248 8 310 3.2 4.8 0.00 0.00 0.00 41 1018.4
20260502055747 8 280 0.0 1.6 0.00 0.00 0.00 40 1018.4
20260502055244 9 295 3.2 6.4 0.00 0.00 0.00 39 1018.2
20260502054743 8 280 0.0 0.0 0.00 0.00 0.00 41 1018.0
20260502054240 9 273 0.0 0.0 0.00 0.00 0.00 39 1018.1
20260502053738 10 269 0.0 0.0 0.00 0.00 0.00 40 1018.2
20260502053235 10 276 0.0 0.0 0.00 0.00 0.00 35 1018.1
20260502052733 11 272 0.0 1.6 0.00 0.00 0.00 34 1018.2
20260502052231 11 267 0.0 0.0 0.00 0.00 0.00 39 1018.0
20260502051728 11 268 0.0 0.0 0.00 0.00 0.00 37 1018.2
20260502051227 10 246 0.0 0.0 0.00 0.00 0.00 35 1018.1
20260502050722 10 262 0.0 0.0 0.00 0.00 0.00 36 1018.0
20260502050219 10 260 0.0 0.0 0.00 0.00 0.00 39 1017.8
20260502045716 10 269 0.0 0.0 0.00 0.00 0.00 37 1018.0
20260502045213 10 244 0.0 0.0 0.00 0.00 0.00 35 1018.0
20260502044710 11 310 0.0 3.2 0.00 0.00 0.00 32 1017.9
20260502044206 11 322 0.0 1.6 0.00 0.00 0.00 31 1017.9
20260502043704 12 302 0.0 3.2 0.00 0.00 0.00 31 1017.7
20260502043201 11 305 0.0 0.0 0.00 0.00 0.00 31 1017.9
20260502042700 12 318 0.0 0.0 0.00 0.00 0.00 30 1017.8
20260502042158 12 291 0.0 0.0 0.00 0.00 0.00 30 1017.8
20260502041655 12 273 0.0 0.0 0.00 0.00 0.00 30 1017.7
20260502041152 13 266 0.0 0.0 0.00 0.00 0.00 33 1017.7
20260502040649 13 269 0.0 0.0 0.00 0.00 0.00 34 1017.9
20260502040146 13 260 0.0 0.0 0.00 0.00 0.00 29 1017.8
20260502035642 13 253 0.0 0.0 0.00 0.00 0.00 31 1017.9
20260502035139 13 254 0.0 0.0 0.00 0.00 0.00 30 1017.7
20260502034637 13 252 0.0 0.0 0.00 0.00 0.00 29 1017.8
20260502034135 15 273 0.0 0.0 0.00 0.00 0.00 26 1017.6
20260502033633 15 292 0.0 3.2 0.00 0.00 0.00 25 1017.8
20260502033131 15 305 0.0 0.0 0.00 0.00 0.00 26 1017.3
20260502032626 15 305 0.0 3.2 0.00 0.00 0.00 26 1017.5
20260502032123 15 325 4.8 6.4 0.00 0.00 0.00 26 1017.5
20260502031621 16 327 3.2 4.8 0.00 0.00 0.00 26 1017.5
20260502031118 15 317 1.6 1.6 0.00 0.00 0.00 27 1017.4
20260502030617 15 297 0.0 0.0 0.00 0.00 0.00 26 1017.4
20260502030115 16 273 0.0 3.2 0.00 0.00 0.00 25 1017.4
20260502025611 16 314 1.6 6.4 0.00 0.00 0.00 25 1017.4
20260502025110 16 298 0.0 1.6 0.00 0.00 0.00 25 1017.1
20260502024607 15 263 0.0 0.0 0.00 0.00 0.00 27 1016.8
20260502024105 15 271 0.0 0.0 0.00 0.00 0.00 27 1016.9
20260502023603 17 319 1.6 3.2 0.00 0.00 0.00 24 1017.0
20260502023100 17 326 1.6 3.2 0.00 0.00 0.00 23 1017.1
20260502022556 18 320 0.0 0.0 0.00 0.00 0.00 23 1016.8
20260502022054 18 319 0.0 0.0 0.00 0.00 0.00 23 1016.9
20260502021551 18 310 0.0 0.0 0.00 0.00 0.00 23 1016.9
20260502021048 18 294 0.0 0.0 0.00 0.00 0.00 23 1016.8
20260502020545 19 288 0.0 0.0 0.00 0.00 0.00 23 1017.0
20260502020042 20 289 0.0 0.0 0.00 0.00 0.00 22 1016.9
20260502015540 20 278 0.0 0.0 0.00 0.00 0.00 21 1016.7
20260502015036 21 281 0.0 0.0 0.00 0.00 0.00 21 1016.8
20260502014533 21 285 0.0 0.0 0.00 0.00 0.00 21 1017.0